Regional Weather Roundup
Issued by NWS Burlington, VT

Home | Current Version | Previous Version | Text Only | Print | Product List | Glossary On
Versions: 1 2 3 4 5 6 7 8 9 10 11 12 13 14 15 16 17 18 19 20 21 22 23 24 25 26 27 28 29 30 31 32 33 34 35 36 37 38 39 40 41 42 43 44 45 46 47 48 49 50
000
ASUS41 KBTV 252330
RWRBTV
VERMONT REGIONAL WEATHER ROUNDUP
NATIONAL WEATHER SERVICE BURLINGTON VT
600 PM EST SUN JAN 25 2015

NOTE: "FAIR" INDICATES FEW OR NO CLOUDS BELOW 12,000 FEET WITH NO
SIGNIFICANT WEATHER AND/OR OBSTRUCTIONS TO VISIBILITY.

* THESE REPORTS ARE NOT UNDER NWS QUALITY CONTROL AND/OR DO NOT
  REPORT WEATHER SUCH AS PRECIPITATION AND FOG.

VTZ001>019-260000-
_____VERMONT_____


CITY           SKY/WX    TMP DP  RH WIND       PRES   REMARKS
BURLINGTON     FAIR      10  -4  53 NE7       29.96R
MONTPELIER     CLEAR      6  -3  66 NW10      29.89R WCI  -9
MORRISVILLE    CLEAR      6  -5  60 CALM      29.92R
ST. JOHNSBURY*   N/A      7  -3  64 MISG      29.87R
MIDDLEBURY*    FAIR      12   0  59 NE7       29.93R
RUTLAND*       CLEAR     12   1  62 NW5       29.89R
SPRINGFIELD    CLEAR     18   1  47 W3        29.88R
HIGHGATE*      FAIR       6  -4  61 CALM      30.00R
NEWPORT*       FAIR       2  -6  67 W7        29.91R
BENNINGTON     PTCLDY    18   4  54 NW8       29.87R
SUTTON*          N/A      1 N/A N/A MISG        N/A
MT. MANSFIELD*   N/A     -6 N/A N/A CALM        N/A

_____LAKE CHAMPLAIN_____


CITY           SKY/WX    TMP DP  RH WIND       PRES   REMARKS
BURTON ISLAND*   N/A     12   1  62 NW9         N/A
COLCHESTER RF*   N/A     16   3  57 N13         N/A  WCI   2
DIAMOND ISL*     N/A     14   3  62 NE16        N/A  WCI  -2

$$

NYZ007-026>031-035-052-083-260000-
_____NORTHERN NEW YORK_____


CITY           SKY/WX    TMP DP  RH WIND       PRES   REMARKS
PLATTSBURGH    CLEAR     11  -3  53 NW3       29.97R
SARANAC LAKE   CLEAR      2  -5  72 SW5       29.86R
MASSENA        CLEAR      7  -6  55 W6        30.05R
OGDENSBURG*    CLEAR      7  -2  66 N5        30.04R
POTSDAM*       CLEAR      7  -4  61 W3        30.03R
WATERTOWN      CLEAR      5  -3  69 SE3       30.03R
ALBANY         MOCLDY    20   2  45 NW16G22   29.94R WCI   6
GLENS FALLS    CLEAR     19   0  43 N7        29.93R

$$
NHZ002-005-011-260000-
_____NEW HAMPSHIRE_____


CITY           SKY/WX    TMP DP  RH WIND       PRES   REMARKS
LEBANON        CLEAR     18   0  45 NW10      29.86R WCI   6
KEENE          CLEAR     23   1  39 NW7       29.84R
MT WASHINGTON  MOCLDY    -9 -17  70 NW71        N/A  WCI -49
PLYMOUTH       FAIR      14   5  65 W8        29.87R
WHITEFIELD     CLEAR      7  -3  64 NW8       29.83R

$$

_____REGIONAL QUEBEC LOCATIONS_____


CITY           SKY/WX    TMP DP  RH WIND       PRES   REMARKS
MONTREAL       PTCLDY     7  -6  56 W14       30.00R WCI -10
QUEBEC CITY    CLEAR      7  -4  61 W13       29.83R WCI  -9
SHERBROOKE     CLEAR      3  -4  72 SW8       29.87R

_____REGIONAL ONTARIO LOCATIONS_____


CITY           SKY/WX    TMP DP  RH WIND       PRES   REMARKS
OTTAWA         CLEAR      3  -6  66 W8        30.03R

______KEY______
VSB  - VISIBILITY IN MILES
WCI  - WIND CHILL INDEX
HX   - HEAT INDEX
$$



USA.gov is the U.S. government's official web portal to all federal, state and local government web resources and services.